Weather History for KMRB - October, 2012

Change the Weather History Date:

Tuesday, October 30, 2012

  Actual Average Record
Temperature  
Mean Temperature 42 °F 50 °F  
Max Temperature 45 °F 61 °F 84 °F (1996)
Min Temperature 38 °F 38 °F 18 °F (1969)
Degree Days  
Heating Degree Days 23 15  
Month to date heating degree days 291 338  
Since 1 July heating degree days 368 429  
Cooling Degree Days 0 0  
Month to date cooling degree days 10 8  
Year to date cooling degree days 1145 893  
Moisture  
Dew Point 37 °F    
Average Humidity 84    
Maximum Humidity 92    
Minimum Humidity 76    
Precipitation  
Precipitation 0.48 in 0.09 in 1.18 in (1970)
Month to date precipitation 3.44 2.95  
Year to date precipitation 29.40 32.76  
Sea Level Pressure  
Sea Level Pressure 29.23 in    
Wind  
Wind Speed 12 mph (SSW)    
Max Wind Speed 38 mph    
Max Gust Speed 48 mph    
Visibility 8 miles    
Events Rain    
T = Trace of Precipitation, MM = Missing Value Source: NWS Daily Summary

Daily Weather History Graph

Daily Weather History Graph

Search for Another Location

Airport or City:

Trip Planner

Search our weather history database for the weather conditions in past years. The results will help you decide how hot, cold, wet, or windy it might be!

Date:

Astronomy

Oct. 30, 2012 Rise Set
Actual Time 7:38 AM EDT 6:12 PM EDT
Civil Twilight 7:10 AM EDT 6:40 PM EDT
Nautical Twilight 6:38 AM EDT 7:11 PM EDT
Astronomical Twilight 6:07 AM EDT 7:42 PM EDT
Moon 6:41 PM EDT (10/30) 8:22 AM EDT (10/30)
Length of Visible Light 11h 29m
Length of Day
10h 34m
Full, 99% of the Moon is Illuminated
Oct 30
Full
Nov 6
Last Quarter
Nov 13
New
Nov 20
First Quarter
Nov 28
Full

Hourly Weather History & Observations

Time (EDT) Temp. Windchill Dew Point Humidity Pressure Visibility Wind Dir Wind Speed Gust Speed Precip Events Conditions
12:13 AM 44.6 °F 34.7 °F 39.2 °F 81% 28.72 in 4.0 mi WNW 29.9 mph 48.3 mph 0.06 in Rain Light Rain
12:53 AM 45.0 °F 36.2 °F 37.9 °F 76% 28.73 in 4.0 mi WNW 24.2 mph 40.3 mph 0.12 in Rain Rain
1:53 AM 44.1 °F 33.7 °F 37.9 °F 79% 28.73 in 4.0 mi West 32.2 mph 44.9 mph 0.08 in Rain Rain
3:53 AM 43.0 °F 33.1 °F 37.0 °F 80% 28.75 in 10.0 mi West 26.5 mph 42.6 mph 0.02 in Rain Light Rain
4:53 AM 42.1 °F 32.1 °F 36.0 °F 79% 28.80 in 10.0 mi West 25.3 mph 41.4 mph 0.02 in   Overcast
5:53 AM 42.1 °F 31.5 °F 36.0 °F 79% 28.87 in 10.0 mi West 28.8 mph 35.7 mph 0.01 in   Overcast
6:53 AM 41.0 °F 31.4 °F 36.0 °F 82% 28.93 in 10.0 mi WSW 21.9 mph 34.5 mph N/A   Overcast
7:53 AM 41.0 °F 35.2 °F 36.0 °F 82% 29.00 in 10.0 mi SW 9.2 mph 20.7 mph 0.01 in Rain Light Rain
8:53 AM 39.9 °F 31.4 °F 35.1 °F 83% 29.05 in 8.0 mi WSW 16.1 mph 28.8 mph 0.04 in Rain Light Rain
9:43 AM 39.2 °F 33.6 °F 35.6 °F 87% 29.10 in 10.0 mi SW 8.1 mph 19.6 mph 0.01 in   Overcast
9:53 AM 39.9 °F 33.4 °F 35.1 °F 83% 29.11 in 10.0 mi SSW 10.4 mph 19.6 mph 0.01 in Rain Light Rain
10:53 AM 39.9 °F 36.7 °F 37.0 °F 89% 29.17 in 9.0 mi SSW 4.6 mph - 0.02 in Rain Light Rain
11:53 AM 41.0 °F 38.0 °F 37.0 °F 86% 29.21 in 9.0 mi South 4.6 mph - 0.03 in Rain Light Rain
12:51 PM 41.0 °F 37.1 °F 37.4 °F 87% 29.24 in 6.0 mi South 5.8 mph - 0.03 in Rain Light Rain
12:53 PM 41.0 °F 36.4 °F 37.9 °F 89% 29.24 in 5.0 mi South 6.9 mph - 0.03 in Rain Light Rain
1:26 PM 41.0 °F 35.8 °F 37.4 °F 87% 29.25 in 5.0 mi South 8.1 mph - 0.03 in Rain Light Rain
1:53 PM 39.9 °F 33.4 °F 36.0 °F 86% 29.27 in 7.0 mi South 10.4 mph - 0.05 in Rain Light Rain
2:28 PM 39.2 °F 33.0 °F 37.4 °F 93% 29.28 in 6.0 mi South 9.2 mph - 0.02 in Rain Light Rain
2:48 PM 39.2 °F 34.2 °F 35.6 °F 87% 29.29 in 7.0 mi South 6.9 mph - 0.03 in Rain Light Rain
2:53 PM 39.9 °F 35.1 °F 37.0 °F 89% 29.30 in 6.0 mi SSW 6.9 mph - 0.03 in Rain Light Rain
3:01 PM 39.2 °F 34.2 °F 35.6 °F 87% 29.29 in 6.0 mi South 6.9 mph - 0.01 in Rain Light Rain
3:19 PM 39.2 °F 35.9 °F 37.4 °F 93% 29.30 in 7.0 mi South 4.6 mph - 0.01 in Rain Light Rain
3:53 PM 39.9 °F 36.7 °F 37.9 °F 93% 29.32 in 8.0 mi South 4.6 mph - 0.02 in Rain Light Rain
3:59 PM 39.2 °F 35.9 °F 37.4 °F 93% 29.32 in 8.0 mi South 4.6 mph - 0.01 in Rain Light Rain
4:16 PM 39.2 °F 35.0 °F 37.4 °F 93% 29.33 in 8.0 mi SSW 5.8 mph - 0.01 in Rain Light Rain
4:31 PM 39.2 °F 35.9 °F 37.4 °F 93% 29.33 in 10.0 mi SSW 4.6 mph - 0.01 in Rain Light Rain
4:43 PM 41.0 °F 39.0 °F 37.4 °F 87% 29.33 in 10.0 mi SSW 3.5 mph - 0.02 in Rain Light Rain
4:53 PM 39.9 °F 36.7 °F 37.0 °F 89% 29.34 in 10.0 mi SW 4.6 mph - 0.02 in Rain Light Rain
5:16 PM 39.2 °F 34.2 °F 37.4 °F 93% 29.35 in 10.0 mi SW 6.9 mph - 0.00 in Rain Light Rain
5:23 PM 39.2 °F 35.0 °F 35.6 °F 87% 29.35 in 10.0 mi SSW 5.8 mph - 0.00 in Rain Light Rain
5:34 PM 39.2 °F 35.9 °F 35.6 °F 87% 29.35 in 10.0 mi SSW 4.6 mph - 0.00 in   Overcast
5:53 PM 39.9 °F 37.8 °F 37.0 °F 89% 29.37 in 10.0 mi SSW 3.5 mph - 0.00 in Rain Light Rain
6:53 PM 39.0 °F 35.7 °F 36.0 °F 89% 29.41 in 9.0 mi SW 4.6 mph - 0.01 in Rain Light Rain
7:29 PM 39.2 °F 37.0 °F 37.4 °F 93% 29.41 in 9.0 mi SSW 3.5 mph - 0.01 in Rain Light Rain
7:42 PM 39.2 °F 35.9 °F 35.6 °F 87% 29.41 in 10.0 mi SSW 4.6 mph - 0.01 in Rain Light Rain
7:53 PM 39.0 °F 35.7 °F 36.0 °F 89% 29.43 in 10.0 mi South 4.6 mph - 0.01 in Rain Light Rain
8:53 PM 39.0 °F 36.8 °F 37.0 °F 93% 29.44 in 10.0 mi SSE 3.5 mph - 0.00 in   Overcast
9:38 PM 39.2 °F - 37.4 °F 93% 29.44 in 7.0 mi Calm Calm - 0.01 in Rain Light Rain
9:53 PM 39.0 °F 35.7 °F 37.0 °F 93% 29.46 in 8.0 mi South 4.6 mph - 0.01 in Rain Light Rain
10:53 PM 39.0 °F - 37.0 °F 93% 29.46 in 10.0 mi Calm Calm - 0.01 in Rain Light Rain
11:04 PM 39.2 °F 37.0 °F 37.4 °F 93% 29.45 in 10.0 mi South 3.5 mph - 0.00 in   Overcast
11:22 PM 39.2 °F 37.0 °F 37.4 °F 93% 29.45 in 10.0 mi South 3.5 mph - 0.00 in   Overcast
11:44 PM 39.2 °F 35.9 °F 37.4 °F 93% 29.45 in 10.0 mi South 4.6 mph - 0.00 in   Overcast
11:53 PM 39.0 °F 35.7 °F 36.0 °F 89% 29.46 in 10.0 mi South 4.6 mph - 0.00 in   Overcast